Wind_Speed
6 6 7 12 17 18 15 17 13 11 10 8 3 1 2 4 5 6 7 10 14 14 14 15 17 17 18 20 20 20 21 20 17 19 20 20 16 15
5 6 8 10 13 17 19 20 14 8 8 10 8 3 1 2 2 3 5 9 10 11 12 15 15 16 16 17 18 18 18 19 18 18 20 21 22 20
7 7 8 9 10 12 17 18 15 11 9 11 9 5 2 2 2 1 3 5 8 9 12 14 14 14 15 16 17 17 17 17 17 16 18 19 21 21
9 9 9 10 11 13 13 15 15 14 13 11 11 7 4 4 4 2 3 3 6 7 8 11 12 12 14 15 16 17 17 17 16 16 16 17 19 19
10 11 10 10 11 11 11 12 11 10 11 9 9 7 6 6 5 4 4 5 5 6 6 7 7 8 13 12 13 16 17 17 16 16 16 17 18 19
12 12 11 11 10 10 10 11 10 10 11 10 8 7 7 7 7 6 6 5 5 5 6 6 5 7 11 10 12 14 16 17 17 17 17 17 18 19
13 13 13 12 12 10 10 11 12 11 11 11 9 8 8 8 8 7 8 8 5 3 4 5 5 7 8 9 11 13 15 16 15 15 16 17 18 19
13 13 14 13 13 13 11 11 12 11 11 11 9 9 8 8 7 7 7 6 5 4 3 3 3 5 6 7 10 12 16 17 15 14 14 14 15 16
13 13 13 14 13 13 12 12 12 11 10 9 8 8 8 7 7 6 5 5 5 4 3 3 3 3 4 7 9 12 14 15 13 13 13 14 15 15
13 13 14 13 13 13 12 12 12 11 11 9 9 9 8 7 6 5 5 5 4 3 4 4 4 6 6 5 9 12 13 13 13 13 17 18 17 16
15 16 16 15 14 14 13 13 12 11 11 10 8 8 8 8 6 6 6 5 5 5 4 4 4 4 6 6 8 11 12 12 12 13 18 19 18 17
17 17 17 16 16 15 14 13 13 12 11 9 8 7 7 6 6 6 6 5 5 5 5 4 3 3 2 6 8 9 12 12 13 12 15 17 18 19
18 18 17 17 16 15 15 14 14 14 12 11 9 8 8 8 7 6 6 5 5 5 5 4 4 4 3 4 7 6 11 12 13 14 16 16 17 19
18 16 15 16 16 16 16 16 17 15 14 13 12 11 10 10 10 9 8 7 7 7 7 7 7 6 6 7 6 9 10 13 12 15 17 18 18 18
18 15 16 17 17 17 17 18 18 16 16 15 13 12 10 11 12 11 10 10 10 9 8 9 9 9 9 9 9 11 11 12 11 18 18 19 20 21
20 20 20 19 18 18 19 20 18 17 17 15 15 14 16 17 15 14 13 12 12 11 10 11 11 11 11 9 10 10 11 12 16 19 21 21 21 21
21 22 23 23 23 22 21 21 19 18 18 17 17 18 18 18 18 17 15 15 15 12 12 13 14 14 13 11 11 10 10 13 17 21 23 24 25 25
21 23 24 24 23 21 21 21 21 20 18 17 19 19 19 20 19 19 18 18 18 15 14 14 16 16 16 15 12 11 13 15 19 22 24 27 28 28
24 21 22 22 23 22 22 22 22 21 19 20 21 21 20 20 20 22 21 20 20 19 17 16 17 18 18 19 15 14 15 19 23 25 27 29 31 30
23 21 21 20 20 20 21 22 23 24 25 25 24 24 23 23 23 24 23 23 21 20 20 20 21 21 21 20 20 18 18 21 25 28 31 32 32 33
23 23 22 21 21 21 21 22 23 24 26 27 27 27 27 27 26 25 25 23 22 22 22 23 22 17 20 22 25 23 19 23 27 30 32 34 36 38
29 27 27 26 26 26 26 27 27 27 27 28 28 29 30 30 29 28 27 26 26 25 23 20 19 21 23 26 27 26 26 25 27 32 31 30 31 31
28 29 29 29 29 30 31 31 30 30 30 29 29 29 30 32 32 31 29 27 26 25 23 22 21 23 26 27 27 29 29 31 33 37 36 34 34 33
Wind_Direction
187 191 192 203 209 209 214 210 208 174 183 200 215 74 63 57 42 33 33 43 38 40 47 51 51 45 46 44 43 41 40 42 47 44 48 42 53 57
174 181 181 189 195 203 206 206 209 209 179 195 197 176 127 54 52 19 30 35 39 36 39 34 45 47 42 42 38 36 37 40 41 44 43 44 42 37
182 180 182 174 173 178 184 197 204 214 213 195 197 189 174 178 226 310 19 22 22 21 15 21 29 36 37 38 34 35 32 36 36 35 40 39 39 37
184 184 185 178 175 181 187 202 218 231 235 207 194 191 192 199 208 238 306 343 6 8 11 8 10 24 30 35 29 29 29 29 27 29 27 27 30 34
191 191 191 188 182 183 188 196 200 193 184 193 192 196 197 201 210 227 268 308 342 351 355 355 354 9 27 27 26 24 22 22 25 22 22 21 20 19
198 199 197 196 193 193 192 192 194 192 194 199 201 208 211 209 216 232 251 271 299 322 338 346 356 355 13 21 15 19 20 20 18 15 15 15 13 12
206 210 207 205 205 203 203 201 201 201 202 203 209 212 214 215 219 237 241 250 256 300 332 344 345 340 352 8 13 9 15 20 16 14 12 9 7 6
210 218 219 213 211 209 208 206 204 208 210 212 217 216 216 216 217 222 223 231 237 275 299 311 303 313 335 358 10 9 2 8 10 13 12 9 6 2
216 218 220 215 210 208 207 206 208 211 211 216 219 219 221 217 220 217 218 229 234 258 249 295 267 271 314 340 3 359 358 1 4 4 10 14 8 3
216 213 214 214 212 209 208 209 209 212 212 213 217 220 220 218 216 218 227 230 227 251 256 264 290 265 273 331 353 352 353 359 5 3 2 5 10 6
215 214 216 214 212 212 210 210 211 212 210 211 217 220 220 219 226 229 225 227 236 250 257 261 295 277 256 272 324 337 345 354 1 359 359 358 358 358
216 216 217 216 215 213 213 215 218 218 219 218 219 224 228 229 231 236 234 230 237 244 242 267 285 318 251 257 302 324 346 348 353 352 353 350 348 350
225 225 224 225 223 219 218 219 221 222 222 226 229 231 236 243 254 258 255 255 259 251 258 272 274 294 281 308 312 323 337 339 341 344 348 348 349 347
233 232 229 229 228 225 222 222 228 228 229 232 236 238 241 243 249 255 254 258 264 271 276 278 285 293 302 312 329 322 332 332 331 341 343 344 343 344
233 231 224 225 227 225 221 223 228 232 236 240 244 245 248 243 245 252 251 251 255 261 265 273 283 290 299 310 316 322 325 331 330 335 339 339 339 338
224 225 222 223 228 229 228 228 231 235 242 245 246 243 241 244 249 247 249 251 256 260 262 264 267 274 285 297 309 316 316 327 329 334 334 336 335 334
225 224 224 230 233 234 235 237 238 241 246 250 251 248 247 248 247 246 249 250 254 260 267 263 265 270 276 286 297 304 309 318 331 332 331 330 331 333
226 230 233 236 239 241 242 242 244 247 251 252 251 249 248 250 248 246 248 251 254 257 262 256 258 263 269 275 281 291 311 320 326 330 329 327 328 329
230 236 241 242 245 249 249 249 252 257 257 254 253 250 248 249 244 244 246 248 251 253 260 256 254 254 263 274 284 296 313 321 322 325 327 325 322 324
235 242 247 248 250 253 256 258 259 259 257 256 254 250 247 246 244 244 245 246 250 252 259 251 252 253 259 274 279 286 302 312 318 319 322 321 320 318
246 250 255 258 260 261 263 264 264 263 261 258 256 252 249 245 244 245 245 245 247 249 254 253 256 267 262 266 271 284 294 303 311 315 318 318 319 317
253 256 258 261 263 263 265 265 265 263 261 257 255 251 249 247 246 245 246 246 246 250 258 263 257 256 259 264 276 285 292 297 301 307 310 311 309 302
259 264 266 266 266 266 267 267 267 263 259 259 257 256 254 251 248 246 246 247 248 249 252 254 254 256 262 269 278 283 290 297 300 305 304 305 306 302
Height
1496 1497 1498 1503 1507 1510 1512 1515 1517 1520 1524 1525 1526 1528 1526 1524 1523 1523 1522 1520 1517 1516 1514 1512 1510 1508 1506 1505 1502 1500 1497 1496 1493 1491 1490 1488 1486 1484
1494 1497 1499 1503 1505 1508 1511 1514 1516 1518 1520 1523 1525 1526 1525 1523 1523 1523 1522 1520 1519 1517 1515 1513 1511 1509 1507 1505 1503 1500 1497 1495 1492 1491 1489 1488 1487 1485
1493 1497 1501 1503 1505 1507 1509 1512 1515 1517 1519 1521 1522 1523 1523 1523 1523 1523 1521 1520 1520 1518 1516 1514 1511 1510 1508 1506 1503 1501 1499 1496 1492 1490 1489 1487 1486 1484
1493 1497 1501 1502 1505 1507 1508 1511 1513 1515 1517 1519 1520 1521 1521 1522 1522 1521 1520 1520 1520 1519 1517 1515 1513 1511 1509 1507 1505 1503 1500 1497 1494 1493 1491 1488 1485 1484
1492 1496 1499 1501 1503 1505 1507 1510 1512 1513 1515 1517 1518 1519 1519 1520 1520 1520 1520 1519 1519 1518 1517 1515 1513 1511 1510 1509 1506 1504 1501 1498 1496 1494 1492 1489 1487 1484
1491 1495 1497 1499 1502 1504 1506 1508 1510 1512 1514 1515 1516 1517 1518 1518 1519 1519 1519 1519 1519 1518 1516 1515 1513 1511 1511 1509 1508 1505 1502 1500 1497 1495 1492 1490 1488 1485
1488 1492 1495 1497 1500 1502 1505 1507 1509 1510 1512 1513 1514 1515 1516 1516 1517 1517 1518 1518 1517 1516 1515 1514 1512 1512 1511 1509 1508 1505 1503 1501 1499 1496 1493 1491 1489 1486
1485 1489 1492 1495 1497 1500 1503 1505 1507 1509 1510 1510 1511 1512 1513 1513 1514 1515 1516 1515 1516 1515 1514 1513 1513 1512 1510 1509 1507 1505 1503 1501 1499 1498 1495 1493 1490 1487
1483 1486 1490 1492 1495 1497 1500 1502 1505 1507 1508 1509 1509 1510 1511 1512 1512 1513 1513 1513 1513 1512 1512 1512 1511 1511 1510 1508 1507 1505 1503 1501 1499 1497 1496 1494 1491 1488
1481 1484 1487 1490 1493 1495 1498 1500 1502 1504 1506 1507 1507 1508 1509 1509 1510 1510 1511 1511 1511 1510 1510 1510 1509 1509 1508 1507 1506 1504 1502 1500 1498 1496 1494 1491 1489 1486
1478 1481 1484 1487 1489 1492 1495 1498 1500 1502 1503 1504 1505 1506 1506 1507 1507 1508 1509 1509 1509 1509 1508 1508 1507 1507 1507 1506 1505 1504 1502 1500 1498 1495 1493 1490 1488 1486
1475 1478 1481 1484 1486 1490 1493 1495 1497 1499 1500 1502 1502 1503 1503 1504 1505 1506 1506 1507 1507 1507 1506 1507 1506 1506 1505 1505 1504 1503 1501 1499 1497 1496 1493 1490 1487 1484
1473 1476 1479 1481 1484 1487 1490 1492 1495 1496 1497 1498 1499 1500 1501 1502 1502 1503 1503 1504 1504 1504 1504 1504 1504 1504 1503 1503 1503 1501 1499 1497 1496 1494 1492 1490 1487 1484
1470 1473 1476 1478 1481 1483 1486 1488 1490 1492 1493 1494 1496 1497 1498 1499 1499 1500 1500 1500 1500 1501 1501 1501 1501 1501 1501 1500 1500 1499 1498 1495 1494 1492 1490 1488 1485 1483
1466 1470 1472 1474 1476 1479 1481 1483 1485 1488 1489 1490 1491 1493 1495 1495 1495 1496 1496 1497 1497 1498 1498 1498 1498 1498 1498 1497 1497 1496 1495 1494 1491 1489 1487 1485 1482 1479
1461 1464 1466 1469 1472 1475 1477 1479 1481 1483 1485 1486 1487 1489 1489 1489 1491 1492 1493 1493 1494 1494 1494 1495 1495 1495 1495 1495 1494 1493 1491 1491 1489 1486 1483 1481 1479 1476
1456 1458 1461 1463 1466 1469 1472 1474 1476 1478 1479 1481 1482 1483 1484 1485 1486 1487 1488 1489 1489 1490 1490 1491 1491 1491 1491 1491 1491 1490 1488 1487 1485 1482 1479 1477 1475 1472
1450 1452 1455 1458 1461 1463 1466 1468 1470 1471 1473 1475 1476 1477 1478 1479 1480 1482 1483 1483 1484 1485 1486 1487 1487 1487 1487 1487 1487 1486 1484 1482 1480 1478 1475 1471 1469 1467
1444 1448 1450 1452 1455 1457 1460 1462 1463 1465 1468 1468 1469 1470 1472 1473 1473 1474 1476 1477 1478 1479 1480 1482 1482 1482 1482 1481 1482 1480 1479 1477 1474 1472 1470 1466 1462 1460
1439 1442 1445 1447 1449 1451 1453 1455 1457 1458 1459 1460 1461 1463 1464 1465 1466 1467 1468 1470 1472 1473 1474 1475 1475 1476 1476 1476 1475 1476 1474 1472 1469 1465 1463 1460 1457 1453
1434 1437 1439 1442 1444 1445 1447 1448 1449 1450 1451 1452 1453 1454 1456 1457 1458 1460 1461 1463 1465 1466 1466 1467 1468 1471 1470 1469 1468 1468 1469 1466 1463 1459 1456 1451 1447 1442
1428 1430 1433 1435 1436 1438 1439 1440 1441 1442 1442 1443 1444 1445 1447 1448 1450 1452 1453 1455 1456 1458 1459 1462 1463 1463 1463 1462 1461 1460 1460 1460 1458 1455 1452 1449 1443 1436
1420 1422 1425 1426 1428 1429 1430 1431 1431 1432 1433 1434 1435 1436 1438 1438 1441 1443 1445 1447 1449 1451 1452 1454 1455 1455 1454 1454 1454 1453 1452 1450 1447 1445 1444 1442 1438 1433